Theta_e
300 298 297 297 297 298 298 297 296 296 298 297 296 295 296 297 296 296 295 295 295 295 295 295 295 295 295 295 296 297 298 299 299 299 299 300 302 308 315 319 323 327 330 334
297 297 298 299 299 298 297 297 296 296 298 298 296 296 296 297 295 295 295 295 295 295 295 294 294 294 294 294 294 296 297 297 298 298 299 299 300 304 308 314 319 324 328 330
297 298 300 299 297 298 297 296 297 297 298 298 299 299 298 297 296 295 295 294 294 294 294 294 294 294 294 293 293 293 294 296 297 297 298 298 299 301 305 310 316 320 323 327
298 299 299 297 298 298 296 298 298 298 297 297 297 300 299 297 295 294 294 294 294 294 294 293 293 293 293 293 293 293 293 295 296 296 297 298 298 298 298 302 309 314 318 323
298 297 297 297 298 298 297 298 297 299 299 299 298 299 298 295 295 294 294 294 294 293 293 293 293 293 292 292 292 292 292 294 295 295 296 297 297 297 298 298 304 311 315 319
298 298 297 298 298 298 298 297 297 296 296 295 298 297 297 294 295 294 294 293 293 293 293 293 293 292 292 292 292 291 291 293 295 295 295 296 296 297 297 297 299 305 312 315
298 297 298 298 297 297 296 295 294 295 293 293 297 295 290 295 294 294 293 293 293 293 292 292 292 292 291 292 291 291 291 292 293 295 294 295 295 296 297 297 298 300 305 311
299 298 298 298 297 297 296 295 292 294 291 291 298 289 291 295 294 294 293 293 293 292 292 292 292 292 291 291 291 291 291 291 293 294 294 293 295 296 296 296 296 298 301 306
296 299 298 298 298 297 297 294 296 296 296 294 291 291 294 296 295 294 293 293 292 292 291 292 292 291 291 291 291 291 290 290 292 293 293 293 294 295 295 296 296 297 299 303
300 297 300 298 299 298 297 297 294 294 290 290 287 290 290 296 295 294 293 292 292 291 291 291 291 291 291 291 290 290 290 290 291 291 292 293 293 294 294 295 295 296 297 301
300 298 298 301 298 296 295 296 295 295 295 289 285 288 291 293 294 293 293 293 292 291 291 291 291 291 290 291 290 290 290 290 291 291 291 292 293 293 294 294 294 295 296 298
299 297 297 300 298 298 297 297 296 294 295 294 291 290 296 294 294 294 293 293 292 292 292 291 291 291 291 290 290 290 290 290 290 290 290 291 292 293 294 294 294 295 296 297
296 297 299 299 298 298 297 298 297 295 294 287 292 290 295 295 294 294 294 293 293 292 292 291 291 291 291 290 290 290 290 290 290 290 290 290 292 293 293 293 294 294 295 296
297 298 299 297 297 298 298 299 297 294 293 289 294 294 292 293 289 294 293 293 292 292 292 292 291 291 291 290 290 290 290 289 289 290 290 291 291 292 292 293 294 295 295 296
298 299 300 301 301 301 298 296 297 293 289 293 290 290 290 289 291 294 293 293 292 292 292 292 292 291 290 290 290 290 289 289 290 290 290 291 291 292 292 293 294 295 296 296
299 299 300 300 302 297 298 297 297 297 293 291 290 292 293 295 295 293 293 292 293 293 292 292 292 290 290 290 289 289 289 289 289 288 289 289 290 292 292 293 294 294 296 296
300 300 300 302 300 297 298 299 298 297 296 289 290 288 293 294 293 293 293 293 293 293 292 291 291 290 290 289 289 289 289 288 288 289 289 289 291 291 292 293 294 294 294 295
301 300 300 301 300 294 300 298 297 293 295 294 292 288 294 293 294 294 294 293 293 293 292 290 290 290 289 289 289 289 288 287 287 288 289 289 289 291 292 293 293 293 293 294
302 300 299 297 300 300 302 298 296 294 293 295 294 295 294 294 295 294 294 293 292 291 290 290 290 289 289 289 289 288 287 288 287 287 288 289 289 290 291 293 292 292 293 293
302 300 297 299 300 298 301 296 295 295 292 296 295 294 295 295 289 291 294 293 291 291 290 290 289 289 289 289 288 287 288 288 287 287 288 288 289 290 291 292 292 291 291 291
299 299 298 299 296 299 302 296 296 297 297 297 296 296 295 293 294 294 293 292 291 290 290 289 289 289 289 289 287 287 287 287 287 286 287 288 289 289 290 291 291 290 289 290
300 299 298 299 299 298 296 296 296 297 297 297 296 296 295 294 294 293 292 291 290 290 289 289 288 288 288 288 287 287 287 286 286 287 287 288 288 289 289 291 290 289 288 288
304 301 302 302 302 302 298 300 300 298 297 297 296 296 295 294 293 292 291 290 290 289 288 288 287 287 287 286 286 286 286 286 286 287 287 288 288 289 289 290 290 289 288 287
305 305 301 301 301 303 304 302 301 299 298 297 296 295 294 293 292 291 291 290 289 288 288 287 287 286 286 286 286 285 285 285 285 286 287 287 288 288 288 288 289 288 287 286
303 304 302 301 302 304 304 304 303 301 299 297 296 295 294 293 292 291 290 290 289 288 287 286 286 285 285 285 285 285 285 284 285 286 286 287 288 288 288 288 287 287 286 285
303 300 300 301 304 304 301 301 300 300 299 298 296 294 293 292 292 291 290 289 289 287 287 285 285 285 285 284 285 284 284 284 284 285 286 287 288 287 286 287 287 286 285 285
Wind_Speed
30 13 19 12 11 8 5 6 8 14 15 11 6 11 8 18 21 22 23 25 27 26 25 25 26 23 29 29 31 34 31 32 34 36 36 32 23 16 9 4 5 5 5 8
6 15 10 12 12 10 7 12 11 8 13 10 6 7 7 14 15 22 22 22 22 22 22 23 24 24 27 28 27 30 30 30 32 31 33 30 25 18 14 9 6 4 2 8
8 6 15 12 10 12 8 11 16 17 20 5 11 5 9 5 20 20 18 17 16 15 17 18 22 23 25 26 27 28 28 28 29 30 31 30 24 18 13 11 4 5 4 2
8 10 10 8 11 12 8 15 18 18 3 4 9 2 1 5 8 13 15 13 13 13 13 16 17 19 21 24 25 26 28 25 28 27 28 28 29 30 26 19 14 8 5 4
2 7 6 7 10 11 7 17 13 12 5 4 8 4 4 6 6 5 10 13 14 14 14 16 15 16 19 22 24 24 28 24 26 26 24 25 26 27 26 22 16 11 7 4
7 15 7 4 7 6 12 12 6 7 4 3 3 3 2 1 4 4 9 10 12 14 15 16 17 17 17 20 23 25 27 22 24 26 21 22 24 26 28 28 21 15 10 5
7 4 6 6 5 5 8 6 4 5 4 4 4 3 6 6 5 3 5 5 9 13 16 17 19 20 21 21 22 24 26 21 25 25 24 19 21 22 25 27 27 22 15 9
5 3 2 3 2 2 6 7 4 3 2 6 2 2 5 7 14 3 6 8 11 13 16 18 19 19 22 22 22 23 25 20 23 24 24 20 18 20 22 24 25 24 20 13
4 3 3 5 3 6 4 4 2 3 6 1 3 5 6 8 7 7 7 9 8 10 13 16 19 20 20 22 21 23 23 21 20 20 23 23 20 20 21 22 25 24 22 15
3 4 4 5 1 6 5 1 4 3 3 5 6 5 4 6 2 7 5 5 6 9 13 17 18 18 19 20 20 20 22 21 18 21 20 21 22 20 20 21 24 26 23 16
1 2 6 5 2 3 3 1 1 3 2 2 3 6 5 4 5 6 12 15 13 11 14 17 16 17 21 18 18 19 20 19 17 19 19 19 21 20 20 20 23 25 23 18
2 1 4 3 4 5 2 5 4 3 4 3 4 6 2 8 5 8 13 15 12 13 14 17 18 20 19 18 17 19 20 16 18 19 18 18 18 20 19 22 22 24 20 18
4 2 3 2 3 2 5 5 3 1 2 4 2 5 8 1 4 9 5 12 15 16 14 17 19 20 16 16 16 18 15 18 20 19 17 18 18 19 19 21 21 23 17 16
3 2 5 5 8 5 6 3 2 5 2 4 8 15 6 8 6 11 8 10 13 12 14 18 18 17 15 14 15 14 16 17 16 16 15 16 17 19 19 20 20 18 14 15
5 3 3 8 12 15 6 6 6 6 8 5 6 6 8 7 7 4 9 12 12 13 16 15 16 14 12 14 14 13 14 15 16 16 15 15 15 17 20 20 18 16 10 14
6 4 4 10 15 7 8 10 9 9 6 5 4 9 9 5 11 16 19 20 13 15 14 13 12 11 12 14 11 12 12 14 16 17 15 14 13 15 18 20 17 18 10 13
4 2 4 5 3 5 7 8 10 5 4 6 3 10 6 2 9 18 20 6 12 13 14 8 9 9 13 10 11 10 12 15 14 14 16 16 15 16 16 18 19 18 16 10
2 3 1 5 6 4 7 6 6 6 5 7 6 5 8 9 10 8 6 9 13 11 8 4 6 10 10 6 9 9 16 16 12 16 15 18 19 15 17 15 18 16 16 18
12 3 2 1 2 10 9 6 5 6 6 7 6 7 9 8 6 4 7 14 12 8 7 7 7 9 6 7 7 12 11 12 15 16 17 17 17 15 19 15 17 16 18 20
8 6 4 3 2 4 4 7 11 8 4 7 4 5 4 3 2 5 10 8 10 10 9 9 7 5 5 5 6 11 11 9 12 13 14 15 16 13 14 16 14 16 15 16
2 3 7 5 4 7 10 15 10 3 5 5 2 5 4 3 4 7 6 9 9 9 10 7 5 4 5 6 8 8 10 11 11 14 11 13 14 13 11 13 12 14 16 14
8 5 4 4 4 8 18 9 5 7 9 6 5 2 1 2 1 2 6 6 7 7 7 6 5 5 4 6 8 8 8 10 12 7 11 11 13 11 14 11 12 13 16 15
3 7 4 8 6 9 22 13 13 14 11 9 7 7 5 3 3 5 4 5 5 4 5 6 5 4 5 7 7 7 8 8 6 7 10 6 9 11 11 12 11 13 17 20
5 9 5 2 5 12 13 20 14 18 16 15 11 9 7 6 5 4 4 4 4 4 4 5 6 6 4 3 5 7 9 12 6 4 9 6 9 9 10 11 10 13 19 22
8 7 4 6 11 16 22 22 22 19 21 16 14 11 10 9 7 7 5 5 6 5 6 6 2 2 4 4 5 9 14 6 1 1 3 4 7 5 7 10 12 16 20 19
10 7 5 6 13 11 6 6 9 9 17 21 17 13 12 11 10 9 7 9 10 6 7 4 3 4 2 1 6 11 7 3 4 3 4 4 7 7 7 7 10 14 15 16
Wind_Direction
48 43 37 28 40 358 336 22 11 341 326 338 311 95 89 82 74 62 49 42 37 31 25 20 19 9 10 9 7 12 6 8 360 351 348 347 353 2 9 325 305 300 245 210
35 37 37 25 29 2 356 16 335 272 296 296 80 91 90 80 78 65 55 45 32 21 15 14 13 13 11 7 1 8 6 6 2 3 352 351 353 352 4 356 317 296 301 229
82 34 38 26 32 10 16 354 326 307 301 68 97 37 14 24 62 54 48 44 35 24 15 12 8 8 7 9 5 0 0 4 2 1 359 354 353 352 357 8 343 299 316 325
85 54 30 33 39 5 8 336 328 313 55 76 28 92 118 357 46 40 35 38 31 25 19 12 6 5 7 6 0 1 357 360 1 1 359 0 360 358 358 350 353 352 335 309
170 78 29 49 31 16 334 336 321 29 63 80 24 76 261 38 11 13 23 25 24 15 18 10 1 3 3 3 358 354 351 359 359 359 358 358 358 356 354 346 341 344 355 332
139 109 53 53 32 343 342 330 351 22 46 40 262 3 264 251 265 327 18 28 22 24 21 13 8 3 360 356 353 352 353 355 358 351 359 355 356 355 354 352 348 341 328 324
118 122 117 69 50 342 14 11 7 353 11 254 246 37 226 235 256 16 340 36 33 22 16 9 10 11 5 359 355 350 353 353 358 352 354 351 352 354 354 353 352 341 328 308
15 286 107 41 123 8 23 63 121 290 315 278 313 240 258 232 250 349 349 42 27 18 9 4 0 351 353 355 355 347 351 353 358 351 357 354 350 351 353 352 351 344 337 320
31 298 137 150 139 107 320 30 255 243 260 13 250 311 325 244 233 348 12 7 15 13 3 356 354 355 346 346 345 348 348 349 352 350 356 359 343 356 349 348 348 344 338 329
335 308 247 138 142 96 123 172 11 357 350 318 304 290 240 216 314 296 307 344 357 360 353 343 341 345 348 338 336 339 345 347 346 342 344 353 351 354 350 345 346 345 343 339
360 59 295 349 112 152 3 356 100 169 178 194 297 273 215 191 267 303 353 341 343 349 345 335 330 327 334 333 332 335 342 343 344 347 343 344 352 347 351 344 345 345 346 345
45 183 272 298 116 134 180 254 132 110 290 215 191 275 86 173 255 294 313 319 326 321 317 328 324 328 331 329 333 339 341 340 345 344 344 345 348 351 346 347 343 346 349 354
329 312 325 205 344 294 236 242 144 131 127 235 184 263 185 59 209 299 324 314 303 299 304 320 318 329 331 332 336 338 340 337 337 343 347 344 351 354 350 348 346 347 351 357
95 264 183 209 227 237 280 253 175 150 166 237 234 272 285 316 295 312 308 308 305 304 308 311 312 330 322 342 340 345 340 340 344 345 346 347 352 356 354 349 352 352 355 4
154 252 271 272 289 288 244 237 247 220 224 206 251 233 273 266 262 286 314 319 316 311 307 304 312 329 347 344 345 349 348 341 343 344 345 355 353 359 355 358 1 0 9 21
192 262 280 281 272 220 261 252 241 235 237 246 248 284 238 279 326 315 316 303 310 297 303 325 327 345 351 348 351 354 348 343 343 344 344 342 351 5 358 358 9 12 34 45
188 228 336 269 284 267 291 245 226 207 183 166 222 237 266 318 289 302 312 318 285 293 318 323 328 340 344 345 347 355 345 346 357 8 11 5 2 8 2 1 20 23 33 38
214 4 272 283 328 5 243 163 153 180 218 224 241 256 204 228 296 290 357 326 304 298 322 339 345 346 344 347 349 344 348 5 11 13 13 9 2 7 6 13 17 23 30 38
194 154 280 265 257 267 298 123 174 165 280 241 248 153 218 260 290 302 349 343 341 1 356 354 344 343 343 342 347 350 2 4 12 9 6 6 0 12 7 22 21 20 34 39
171 163 135 346 311 267 243 140 113 97 296 135 157 243 236 260 44 261 323 334 346 354 354 345 351 344 326 342 345 354 7 1 356 352 4 5 360 9 11 15 31 19 13 32
160 218 201 217 249 273 258 141 127 75 235 138 221 267 266 174 242 310 325 340 336 341 347 353 359 13 349 327 355 6 359 348 345 339 9 10 358 18 16 27 47 33 23 10
172 169 203 182 217 276 129 125 170 188 169 191 209 247 259 314 308 329 341 336 342 346 344 346 348 356 340 354 345 351 342 331 336 14 11 9 4 24 22 36 35 24 19 19
240 186 188 178 219 215 189 221 242 182 201 223 229 239 242 234 273 315 317 328 334 327 332 332 336 326 332 346 345 329 323 320 334 0 14 24 5 43 22 20 22 24 21 24
280 215 212 58 271 246 272 243 250 228 222 217 214 202 221 226 242 248 280 301 284 298 305 294 303 319 349 324 328 308 299 304 302 22 32 28 14 40 23 16 31 22 19 20
222 323 214 262 266 264 274 271 270 235 227 212 209 220 214 224 234 242 243 249 260 267 266 296 317 291 299 322 307 296 298 315 344 80 60 53 43 42 23 18 22 17 13 25
198 200 172 223 236 228 230 223 223 237 224 215 211 202 217 224 223 237 230 236 253 241 266 241 260 273 281 273 277 294 317 81 347 193 173 81 45 22 21 40 11 12 22 22